This is the latest recevied weather packets stored in our database for station/object AE6BH. If no packets are shown the sender has not sent any weather packets the latest 10 day(s).
| Time | Temp. | Humidity | Pressure | Rain* | Wind** | Luminosity | Snow |
|---|---|---|---|---|---|---|---|
| 1778200868 | 20.56° C | 60% | 1014.8 hPa | 0 mm | - | 69 W/m² | - |
| 1778200564 | 20.56° C | 60% | 1014.8 hPa | 0 mm | - | 44 W/m² | - |
| 1778200262 | 20.56° C | 60% | 1014.7 hPa | 0 mm | - | 49 W/m² | - |
| 1778199958 | 20.56° C | 60% | 1014.7 hPa | 0 mm | - | 55 W/m² | - |
| 1778199656 | 20.56° C | 60% | 1014.8 hPa | 0 mm | - | 47 W/m² | - |
| 1778199351 | 20.56° C | 59% | 1014.8 hPa | 0 mm | - | 48 W/m² | - |
| 1778199047 | 21.11° C | 58% | 1014.8 hPa | 0 mm | - | 62 W/m² | - |
| 1778198743 | 20.56° C | 59% | 1014.9 hPa | 0 mm | - | 121 W/m² | - |
| 1778198441 | 21.11° C | 59% | 1014.5 hPa | 0 mm | - | 85 W/m² | - |
| 1778198137 | 20.56° C | 60% | 1014.8 hPa | 0 mm | - | 55 W/m² | - |
| 1778197835 | 21.11° C | 59% | 1014.8 hPa | 0 mm | - | 107 W/m² | - |
| 1778197531 | 21.11° C | 58% | 1014.9 hPa | 0 mm | - | 71 W/m² | - |
| 1778197227 | 21.67° C | 57% | 1014.7 hPa | 0 mm | - | 70 W/m² | - |
| 1778196924 | 21.67° C | 57% | 1014.7 hPa | 0 mm | - | 136 W/m² | - |
| 1778196623 | 21.11° C | 58% | 1014.7 hPa | 0 mm | - | 92 W/m² | - |
| 1778196319 | 21.11° C | 59% | 1014.7 hPa | 0 mm | - | 69 W/m² | - |
| 1778196016 | 21.67° C | 58% | 1014.6 hPa | 0 mm | - | 62 W/m² | - |
| 1778195713 | 21.11° C | 59% | 1014.7 hPa | 0 mm | - | 156 W/m² | - |
| 1778195410 | 21.11° C | 58% | 1014.7 hPa | 0 mm | - | 69 W/m² | - |
| 1778195107 | 21.67° C | 57% | 1014.7 hPa | 0 mm | - | 117 W/m² | - |
| 1778194803 | 21.67° C | 57% | 1014.6 hPa | 0 mm | - | 72 W/m² | - |
| 1778194498 | 21.67° C | 57% | 1014.5 hPa | 0 mm | - | 79 W/m² | - |
| 1778194195 | 21.11° C | 58% | 1014.7 hPa | 0 mm | - | 67 W/m² | - |
| 1778193890 | 21.11° C | 58% | 1014.6 hPa | 0 mm | - | 84 W/m² | - |
| 1778193587 | 21.67° C | 58% | 1014.8 hPa | 0 mm | - | 109 W/m² | - |
* Rain latest hour (hover to see other rain measurements)
** Current wind speed in m/s (hover to see current wind gust speed)